| time (UTC) | temp C | wind direction | speed KPH | gust KPH | rain 1hr cm | rain 24hr cm | rain mn cm | humidity % | barometer mb |
| 20260506163547 | 7 | 4.8 | 11.3 | 0.05 | 2.49 | 2.44 | 99 | 1008.4 | |
| 20260506162545 | 7 | 4.8 | 12.9 | 0.05 | 2.46 | 2.39 | 99 | 1008.5 | |
| 20260506161542 | 7 | 4.8 | 14.5 | 0.05 | 2.46 | 2.39 | 99 | 1008.4 | |
| 20260506160540 | 7 | 3.2 | 12.9 | 0.05 | 2.46 | 2.39 | 99 | 1008.4 | |
| 20260506155537 | 7 | 3.2 | 12.9 | 0.03 | 2.44 | 2.36 | 99 | 1008.4 | |
| 20260506154534 | 7 | 1.6 | 8.0 | 0.03 | 2.44 | 2.36 | 99 | 1008.4 | |
| 20260506153532 | 7 | 1.6 | 6.4 | 0.03 | 2.44 | 2.36 | 99 | 1008.3 | |
| 20260506152529 | 7 | 3.2 | 9.7 | 0.00 | 2.39 | 2.34 | 99 | 1008.3 | |
| 20260506151527 | 7 | 3.2 | 11.3 | 0.00 | 2.39 | 2.34 | 99 | 1008.3 | |
| 20260506150524 | 7 | 1.6 | 8.0 | 0.00 | 2.39 | 2.34 | 99 | 1008.2 | |
| 20260506145522 | 7 | 3.2 | 6.4 | 0.00 | 2.39 | 2.34 | 99 | 1008.1 | |
| 20260506144519 | 7 | 4.8 | 12.9 | 0.00 | 2.39 | 2.34 | 99 | 1008.1 | |
| 20260506143517 | 7 | 1.6 | 6.4 | 0.00 | 2.39 | 2.34 | 99 | 1008.0 | |
| 20260506142614 | 7 | 1.6 | 6.4 | 0.03 | 2.39 | 2.34 | 99 | 1008.0 | |
| 20260506141612 | 7 | 3.2 | 9.7 | 0.03 | 2.39 | 2.34 | 99 | 1008.1 | |
| 20260506140609 | 7 | 3.2 | 9.7 | 0.03 | 2.39 | 2.34 | 99 | 1008.0 | |
| 20260506135607 | 7 | 1.6 | 9.7 | 0.03 | 2.39 | 2.34 | 99 | 1008.1 | |
| 20260506134604 | 7 | 3.2 | 9.7 | 0.03 | 2.39 | 2.34 | 99 | 1008.0 | |
| 20260506133602 | 7 | 3.2 | 8.0 | 0.03 | 2.39 | 2.34 | 99 | 1007.9 | |
| 20260506132559 | 7 | 3.2 | 12.9 | 0.00 | 2.36 | 2.31 | 99 | 1007.9 | |
| 20260506131557 | 7 | 3.2 | 11.3 | 0.03 | 2.36 | 2.31 | 99 | 1008.0 | |
| 20260506130554 | 7 | 3.2 | 11.3 | 0.05 | 2.36 | 2.31 | 99 | 1007.8 | |
| 20260506125552 | 7 | 4.8 | 11.3 | 0.05 | 2.36 | 2.31 | 99 | 1007.8 | |
| 20260506124549 | 7 | 3.2 | 12.9 | 0.10 | 2.36 | 2.31 | 99 | 1007.7 | |
| 20260506123547 | 7 | 4.8 | 11.3 | 0.10 | 2.36 | 2.31 | 99 | 1007.7 | |
| 20260506122544 | 7 | 3.2 | 9.7 | 0.13 | 2.36 | 2.31 | 99 | 1007.6 | |
| 20260506121542 | 7 | 4.8 | 12.9 | 0.13 | 2.34 | 2.29 | 99 | 1007.7 | |
| 20260506120539 | 7 | 6.4 | 12.9 | 0.10 | 2.31 | 2.26 | 99 | 1007.5 | |
| 20260506115537 | 7 | 4.8 | 12.9 | 0.13 | 2.31 | 2.26 | 99 | 1007.5 | |
| 20260506114534 | 7 | 3.2 | 12.9 | 0.13 | 2.29 | 2.21 | 99 | 1007.3 | |
| 20260506113532 | 7 | 3.2 | 11.3 | 0.15 | 2.29 | 2.21 | 99 | 1007.3 | |
| 20260506112529 | 7 | 4.8 | 11.3 | 0.15 | 2.26 | 2.18 | 99 | 1007.4 | |
| 20260506111527 | 7 | 3.2 | 11.3 | 0.15 | 2.21 | 2.16 | 99 | 1007.3 | |
| 20260506110524 | 7 | 3.2 | 8.0 | 0.18 | 2.21 | 2.16 | 99 | 1007.2 | |
| 20260506105522 | 7 | 3.2 | 9.7 | 0.15 | 2.18 | 2.13 | 99 | 1007.2 | |
| 20260506104519 | 7 | 3.2 | 12.9 | 0.13 | 2.16 | 2.11 | 99 | 1007.2 | |
| 20260506103516 | 7 | 4.8 | 11.3 | 0.13 | 2.13 | 2.06 | 99 | 1007.1 | |
| 20260506102614 | 7 | 3.2 | 16.1 | 0.10 | 2.11 | 2.03 | 99 | 1007.0 | |
| 20260506101612 | 7 | 4.8 | 16.1 | 0.10 | 2.06 | 2.01 | 99 | 1006.9 | |
| 20260506100609 | 7 | 3.2 | 9.7 | 0.10 | 2.03 | 1.98 | 99 | 1006.8 | |
| 20260506095606 | 7 | 4.8 | 12.9 | 0.13 | 2.03 | 1.98 | 99 | 1006.7 | |
| 20260506094604 | 7 | 4.8 | 11.3 | 0.15 | 2.03 | 1.98 | 99 | 1006.7 | |
| 20260506093601 | 7 | 4.8 | 12.9 | 0.13 | 2.01 | 1.96 | 99 | 1006.7 | |
| 20260506092559 | 7 | 6.4 | 12.9 | 0.13 | 2.01 | 1.96 | 99 | 1006.6 | |
| 20260506091556 | 7 | 4.8 | 11.3 | 0.10 | 1.98 | 1.93 | 99 | 1006.5 | |
| 20260506090554 | 7 | 4.8 | 12.9 | 0.05 | 1.96 | 1.88 | 99 | 1006.4 | |
| 20260506085551 | 7 | 3.2 | 8.0 | 0.03 | 1.93 | 1.85 | 99 | 1006.5 | |
| 20260506084549 | 8 | 3.2 | 11.3 | 0.00 | 1.88 | 1.83 | 99 | 1006.3 | |
| 20260506083546 | 8 | 4.8 | 12.9 | 0.03 | 1.88 | 1.83 | 99 | 1006.4 | |
| 20260506082544 | 7 | 3.2 | 8.0 | 0.03 | 1.88 | 1.83 | 99 | 1006.2 | |
| 20260506081541 | 7 | 4.8 | 12.9 | 0.05 | 1.88 | 1.83 | 99 | 1006.3 | |
| 20260506080539 | 8 | 4.8 | 12.9 | 0.10 | 1.88 | 1.83 | 99 | 1006.3 | |
| 20260506072529 | 8 | 6.4 | 16.1 | 0.18 | 1.85 | 1.80 | 99 | 1006.0 | |
| 20260506071526 | 8 | 3.2 | 8.0 | 0.18 | 1.83 | 1.78 | 99 | 1006.0 | |
| 20260506070524 | 8 | 1.6 | 8.0 | 0.18 | 1.80 | 1.75 | 99 | 1006.0 | |
| 20260506061611 | 8 | 4.8 | 12.9 | 0.13 | 1.96 | 1.60 | 99 | 1005.7 | |
| 20260506060609 | 8 | 6.4 | 14.5 | 0.13 | 1.98 | 1.55 | 99 | 1005.6 | |
| 20260506050553 | 8 | 4.8 | 12.9 | 0.13 | 2.26 | 1.45 | 99 | 1005.7 | |
| 20260506044548 | 8 | 3.2 | 11.3 | 0.13 | 2.44 | 1.42 | 99 | 1005.6 | |
| 20260506043546 | 8 | 4.8 | 12.9 | 0.13 | 2.44 | 1.37 | 99 | 1005.6 | |
| 20260506042543 | 8 | 4.8 | 12.9 | 0.13 | 2.44 | 1.35 | 99 | 1005.6 | |
| 20260506041541 | 8 | 4.8 | 14.5 | 0.13 | 2.39 | 1.32 | 99 | 1005.5 | |
| 20260506040538 | 8 | 4.8 | 12.9 | 0.15 | 2.44 | 1.32 | 99 | 1005.5 | |
| 20260506035536 | 8 | 3.2 | 8.0 | 0.13 | 2.44 | 1.30 | 99 | 1005.6 | |
| 20260506034533 | 8 | 3.2 | 9.7 | 0.15 | 2.44 | 1.30 | 99 | 1005.5 | |
| 20260506033600 | 8 | 4.8 | 12.9 | 0.15 | 2.39 | 1.27 | 99 | 1005.6 | |
| 20260506032558 | 8 | 3.2 | 11.3 | 0.18 | 2.36 | 1.22 | 99 | 1005.6 | |
| 20260506031555 | 8 | 3.2 | 9.7 | 0.18 | 2.34 | 1.19 | 99 | 1005.7 | |
| 20260506030553 | 8 | 3.2 | 9.7 | 0.18 | 2.34 | 1.17 | 99 | 1005.8 | |
| 20260506025550 | 8 | 6.4 | 17.7 | 0.18 | 2.34 | 1.17 | 99 | 1005.7 | |
| 20260506024548 | 8 | 4.8 | 17.7 | 0.20 | 2.31 | 1.14 | 99 | 1005.8 | |
| 20260506023545 | 8 | 4.8 | 12.9 | 0.20 | 2.29 | 1.12 | 99 | 1005.9 | |
| 20260506022543 | 8 | 4.8 | 12.9 | 0.20 | 2.21 | 1.04 | 99 | 1005.9 | |
| 20260506021540 | 8 | 3.2 | 12.9 | 0.20 | 2.18 | 1.02 | 99 | 1005.9 | |
| 20260506020538 | 8 | 4.8 | 12.9 | 0.20 | 2.16 | 0.99 | 99 | 1005.9 | |
| 20260506015535 | 8 | 4.8 | 19.3 | 0.23 | 2.16 | 0.99 | 99 | 1006.0 | |
| 20260506014533 | 8 | 6.4 | 12.9 | 0.20 | 2.11 | 0.94 | 99 | 1006.0 | |
| 20260506013531 | 8 | 4.8 | 12.9 | 0.20 | 2.06 | 0.89 | 99 | 1006.0 | |
| 20260506012528 | 8 | 4.8 | 12.9 | 0.18 | 2.01 | 0.84 | 99 | 1006.0 | |
| 20260506011525 | 8 | 4.8 | 12.9 | 0.18 | 1.98 | 0.81 | 99 | 1006.1 | |
| 20260506010523 | 8 | 4.8 | 12.9 | 0.20 | 1.96 | 0.79 | 99 | 1006.2 | |
| 20260506005520 | 8 | 4.8 | 12.9 | 0.20 | 1.93 | 0.76 | 99 | 1006.3 | |
| 20260506004517 | 8 | 4.8 | 14.5 | 0.20 | 1.88 | 0.71 | 99 | 1006.3 | |
| 20260506003515 | 8 | 6.4 | 12.9 | 0.23 | 1.85 | 0.69 | 99 | 1006.4 | |
| 20260506002613 | 8 | 4.8 | 12.9 | 0.23 | 1.83 | 0.66 | 99 | 1006.5 | |
| 20260506001610 | 8 | 4.8 | 8.0 | 0.28 | 1.80 | 0.64 | 99 | 1006.5 | |
| 20260506000608 | 8 | 4.8 | 12.9 | 0.33 | 1.75 | 0.56 | 99 | 1006.6 | |
| 20260505235605 | 8 | 4.8 | 12.9 | 0.36 | 1.70 | 0.53 | 99 | 1006.8 | |
| 20260505234603 | 8 | 4.8 | 12.9 | 0.38 | 1.68 | 0.51 | 99 | 1007.0 | |
| 20260505233600 | 8 | 3.2 | 12.9 | 0.36 | 1.63 | 0.46 | 99 | 1007.1 | |
| 20260505232557 | 8 | 4.8 | 14.5 | 0.36 | 1.60 | 0.43 | 99 | 1006.9 | |
| 20260505231555 | 8 | 6.4 | 12.9 | 0.33 | 1.52 | 0.36 | 99 | 1007.0 | |
| 20260505230552 | 9 | 3.2 | 14.5 | 0.23 | 1.42 | 0.23 | 99 | 1007.2 | |
| 20260505225550 | 9 | 4.8 | 17.7 | 0.18 | 1.35 | 0.18 | 99 | 1007.2 | |
| 20260505224547 | 9 | 6.4 | 17.7 | 0.15 | 1.30 | 0.13 | 99 | 1007.1 | |
| 20260505223545 | 9 | 4.8 | 9.7 | 0.13 | 1.27 | 0.10 | 99 | 1007.3 | |
| 20260505222542 | 9 | 4.8 | 11.3 | 0.10 | 1.22 | 0.05 | 99 | 1007.3 | |
| 20260505221540 | 9 | 4.8 | 9.7 | 0.10 | 1.19 | 0.03 | 99 | 1007.3 | |
| 20260505220537 | 9 | 3.2 | 9.7 | 0.05 | 1.17 | 0.00 | 99 | 1007.4 | |
| 20260505215535 | 9 | 4.8 | 11.3 | 0.05 | 1.17 | 1.17 | 99 | 1007.5 | |
| 20260505214532 | 9 | 4.8 | 11.3 | 0.03 | 1.14 | 1.14 | 99 | 1007.4 | |
| 20260505213530 | 9 | 4.8 | 12.9 | 0.03 | 1.14 | 1.14 | 99 | 1007.5 | |
| 20260505212527 | 9 | 3.2 | 11.3 | 0.03 | 1.14 | 1.14 | 99 | 1007.6 | |
| 20260505211524 | 9 | 4.8 | 12.9 | 0.00 | 1.12 | 1.12 | 99 | 1007.7 | |
| 20260505210522 | 9 | 6.4 | 14.5 | 0.00 | 1.12 | 1.12 | 99 | 1007.7 | |
| 20260505205519 | 9 | 3.2 | 14.5 | 0.00 | 1.12 | 1.12 | 99 | 1007.7 | |
| 20260505204517 | 9 | 4.8 | 12.9 | 0.00 | 1.12 | 1.12 | 99 | 1007.8 | |
| 20260505203615 | 9 | 3.2 | 9.7 | 0.00 | 1.12 | 1.12 | 99 | 1007.7 | |
| 20260505202612 | 9 | 3.2 | 8.0 | 0.00 | 1.12 | 1.12 | 99 | 1007.8 | |
| 20260505201610 | 9 | 4.8 | 12.9 | 0.00 | 1.12 | 1.12 | 99 | 1007.7 | |
| 20260505200607 | 9 | 4.8 | 9.7 | 0.00 | 1.12 | 1.12 | 99 | 1007.8 | |
| 20260505195605 | 9 | 4.8 | 12.9 | 0.00 | 1.14 | 1.12 | 99 | 1007.7 | |
| 20260505194602 | 9 | 3.2 | 8.0 | 0.00 | 1.14 | 1.12 | 99 | 1007.9 | |
| 20260505193559 | 9 | 3.2 | 8.0 | 0.00 | 1.14 | 1.12 | 99 | 1007.8 | |
| 20260505192557 | 9 | 4.8 | 8.0 | 0.00 | 1.14 | 1.12 | 99 | 1007.7 | |
| 20260505191554 | 9 | 3.2 | 8.0 | 0.00 | 1.14 | 1.12 | 99 | 1007.7 | |
| 20260505190552 | 9 | 4.8 | 12.9 | 0.00 | 1.14 | 1.12 | 99 | 1007.6 | |
| 20260505185549 | 9 | 3.2 | 11.3 | 0.00 | 1.14 | 1.12 | 99 | 1007.6 | |
| 20260505184547 | 9 | 4.8 | 12.9 | 0.00 | 1.14 | 1.12 | 99 | 1007.6 | |
| 20260505183544 | 9 | 4.8 | 12.9 | 0.00 | 1.14 | 1.12 | 99 | 1007.5 | |
| 20260505182542 | 9 | 3.2 | 11.3 | 0.00 | 1.14 | 1.12 | 99 | 1007.5 | |
| 20260505181539 | 9 | 3.2 | 9.7 | 0.00 | 1.14 | 1.12 | 99 | 1007.5 | |
| 20260505180537 | 9 | 3.2 | 12.9 | 0.00 | 1.14 | 1.12 | 99 | 1007.6 | |
| 20260505175534 | 9 | 4.8 | 11.3 | 0.00 | 1.14 | 1.12 | 99 | 1007.5 | |
| 20260505174532 | 9 | 3.2 | 11.3 | 0.00 | 1.14 | 1.12 | 99 | 1007.6 | |
| 20260505173529 | 9 | 3.2 | 12.9 | 0.00 | 1.14 | 1.12 | 99 | 1007.7 | |
| 20260505172526 | 9 | 3.2 | 9.7 | 0.00 | 1.14 | 1.12 | 99 | 1007.6 | |
| 20260505171524 | 9 | 4.8 | 11.3 | 0.00 | 1.14 | 1.12 | 99 | 1007.6 | |
| 20260505170521 | 9 | 4.8 | 11.3 | 0.00 | 1.14 | 1.12 | 99 | 1007.6 | |
| 20260505165519 | 9 | 3.2 | 11.3 | 0.00 | 1.14 | 1.12 | 99 | 1007.8 | |
| 20260505164516 | 9 | 3.2 | 8.0 | 0.00 | 1.14 | 1.12 | 99 | 1007.6 |